[Iaude] MPEC X272: COMET C/2023 X4 (Hogan)

mpec at marsden.cfa.harvard.edu mpec at marsden.cfa.harvard.edu
Wed Dec 13 19:09:35 EST 2023


M.P.E.C. 2023-X272                            Issued 2023 December 14, 00:06 UT

     The Minor Planet Electronic Circulars contain information on unusual
         minor planets, routine data on comets and natural satellites,
         and occasional editorial announcements.  They are published
    on behalf of Division F of the International Astronomical Union by the
          Minor Planet Center, Smithsonian Astrophysical Observatory,
                          Cambridge, MA 02138, U.S.A.
			  
             Prepared using the Tamkin Foundation Computer Network

                              MPC at CFA.HARVARD.EDU
            URL https://www.minorplanetcenter.net/    ISSN 1523-6714

                            COMET C/2023 X4 (Hogan)                             

     J. Hogan reports the discovery of a comet in four 30-second survey images
taken on Dec. 13 UT by Mt. Lemmon Survey (G96), noting a condensed 10".9 coma
and a 2".5 tail at position angle 337 deg.  Prediscovery positions were
reported back to Sep. 2023. Additional reports of cometary features are as 
follows:

OC   Date        Reporter           Coma    Tail    PA          Exposures

F51  2023-09-20  R. Weryk           0".4      1"    270           4x45s
F52  2023-10-16  R. Weryk           0".3      3"    270           4x45s
I52  2023-12-13  K. Wierzchos       5"       13"    260           4x30s

Observations:
    CK23X040  C2023 09 20.59871806 53 33.010+32 31 57.87         22.21wXEX272F51
    CK23X040  C2023 09 20.60431406 53 33.351+32 31 58.34         22.17wXEX272F51
    CK23X040  C2023 09 20.60989106 53 33.673+32 31 59.26         22.10wXEX272F51
    CK23X040  C2023 09 20.61542406 53 34.015+32 31 59.70         22.15wXEX272F51
    CK23X040  C2023 10 16.56188007 15 05.852+33 23 26.44         21.54wXEX272F52
    CK23X040  C2023 10 16.57401507 15 06.317+33 23 28.82         21.98wXEX272F52
    CK23X040  C2023 10 16.58614107 15 06.783+33 23 29.80         21.64wXEX272F52
    CK23X040  C2023 10 16.59830107 15 07.258+33 23 31.64         21.94wXEX272F52
    CK23X040 1C2023 10 22.42587907 18 42.894+33 38 04.78         21.26GVEX272G96
    CK23X040 1C2023 10 22.43108107 18 43.150+33 38 05.50         21.45GVEX272G96
    CK23X040 1C2023 10 22.43629807 18 43.304+33 38 06.54         21.18GVEX272G96
    CK23X040 1C2023 10 22.44152207 18 43.463+33 38 07.22         21.62GVEX272G96
    CK23X040*1C2023 12 13.33238907 23 30.246+36 35 45.24         19.86GVEX272G96
    CK23X040 1C2023 12 13.33765807 23 30.084+36 35 46.32         19.87GVEX272G96
    CK23X040 1C2023 12 13.34293707 23 29.987+36 35 47.08         19.85GVEX272G96
    CK23X040 1C2023 12 13.34820007 23 29.857+36 35 48.66         19.85GVEX272G96
    CK23X040 1C2023 12 13.41358407 23 28.172+36 36 02.74         20.04GVEX272G96
    CK23X040 1C2023 12 13.42704507 23 27.827+36 36 05.22         19.74GVEX272G96
    CK23X040 mC2023 12 13.43022907 23 27.769+36 36 05.76         20.25GVEX272I52
    CK23X040 1C2023 12 13.44044807 23 27.517+36 36 08.10         19.86GVEX272G96
    CK23X040 mC2023 12 13.44219707 23 27.470+36 36 08.42         19.99GVEX272I52
    CK23X040 1C2023 12 13.45373507 23 27.179+36 36 10.98         20.19GVEX272G96
    CK23X040 mC2023 12 13.45518207 23 27.121+36 36 11.12         19.99GVEX272I52
    CK23X040 mC2023 12 13.46914307 23 26.740+36 36 14.26         20.12GVEX272I52

Observer details:
F51 Pan-STARRS 1, Haleakala.  Observers J. Bulger, T. Lowe, A. Schultz, I.
    Smith.  Measurers K. Chambers, S. Chastel, T. de Boer, J. Fairlamb, H.
    Gao, M. Huber, C.-C. Lin, E. Magnier, Y. Ramanjooloo, R. Wainscoat, R.
    Weryk.  1.8-m Ritchey-Chretien + CCD.
F52 Pan-STARRS 2, Haleakala.  Observers J. Bulger, T. Lowe, P. Minguez, A.
    Schultz, I. Smith.  Measurers K. Chambers, T. de Boer, J. Fairlamb, H.
    Gao, M. Huber, C.-C. Lin, E. Magnier, Y. Ramanjooloo, R. Wainscoat, R.
    Weryk.  1.8-m Ritchey-Chretien + CCD.
G96 Mt. Lemmon Survey.  Observer J. K. Hogan.  Measurers E. C. Beshore, D.
    Fay, J. B. Fazekas, D. C. Fuls, A. R. Gibbs, A. D. Grauer, H. Groeller, J.
    K. Hogan, R. A. Kowalski, S. M. Larson, G. J. Leonard, D. Rankin, R. L.
    Seaman, F. C. Shelly, K. W. Wierzchos.  1.5-m reflector + 10K CCD.
I52 Steward Observatory, Mt. Lemmon Station.  Observer K. W. Wierzchos.
    Measurers E. C. Beshore, D. Fay, J. B. Fazekas, D. C. Fuls, A. R. Gibbs,
    A. D. Grauer, H. Groeller, J. K. Hogan, R. A. Kowalski, S. M. Larson, G.
    J. Leonard, D. Rankin, R. L. Seaman, F. C. Shelly, K. W. Wierzchos.  1.0-m
    prime focus + CCD.

Orbital elements:
    C/2023 X4 (Hogan)                                                           
Epoch 2023 Sept. 13.0 TT = JDT 2460200.5                                        
T 2024 May 24.65600 TT                                  Bell                    
q   3.6580253            (2000.0)            P               Q                  
n   0.03158489     Peri.  100.52552     -0.62358582     -0.77574930             
a   9.9117384      Node    28.76404     +0.61535273     -0.56338401             
e   0.6309401      Incl.   11.59457     +0.48216360     -0.28427359             
P  31.2                                                                         
>From 24 observations 2023 Sept. 20-Dec. 13, mean residual 0".2.                 
                                                                                
Ephemeris:
Date    TT    R. A. (2000) Decl.     Delta      r    Elong.  Phase   m1    m2
2023 11 14    07 27 12.4 +34 47 16   3.2898  3.9041   121.9    12.4  20.5
...
2023 11 29    07 27 25.6 +35 42 24   3.0954  3.8688   136.3    10.2  20.3
...
2023 12 07    07 25 42.8 +36 12 36   3.0096  3.8509   144.1     8.6  20.2
...
2023 12 13    07 23 38.2 +36 34 34   2.9549  3.8380   149.8     7.4  20.2
2023 12 14    07 23 13.8 +36 38 07   2.9467  3.8359   150.7     7.2  20.2
2023 12 15    07 22 48.4 +36 41 37   2.9387  3.8338   151.7     7.0  20.2
...
2023 12 21    07 19 56.9 +37 01 34   2.8964  3.8214   157.0     5.8  20.1
...
2023 12 29    07 15 26.4 +37 24 24   2.8553  3.8055   162.7     4.4  20.1
...
2024 01 13    07 05 54.6 +37 51 13   2.8276  3.7777   162.6     4.5  20.0

M. P. C. Staff               (C) Copyright 2023 MPC           M.P.E.C. 2023-X272





More information about the Iaude mailing list